TimeCDT,TemperatureF,Dew PointF,Humidity,Sea Level PressureIn,VisibilityMPH,Wind Direction,Wind SpeedMPH,Gust SpeedMPH,PrecipitationIn,Events,Conditions,WindDirDegrees,DateUTC
12:53 AM,48.9,39.0,69,29.87,10.0,South,3.5,-,N/A,,Clear,190,2013-10-20 05:53:00
1:53 AM,48.9,39.0,69,29.86,10.0,SSW,3.5,-,N/A,,Clear,200,2013-10-20 06:53:00
2:53 AM,48.9,39.9,71,29.86,10.0,SSW,5.8,-,N/A,,Clear,210,2013-10-20 07:53:00
3:53 AM,46.0,39.0,76,29.84,10.0,SSW,3.5,-,N/A,,Clear,200,2013-10-20 08:53:00
4:53 AM,45.0,39.0,80,29.84,10.0,SSW,5.8,-,N/A,,Clear,210,2013-10-20 09:53:00
5:53 AM,42.1,37.0,82,29.84,10.0,Calm,Calm,-,N/A,,Clear,0,2013-10-20 10:53:00
6:53 AM,42.1,37.9,85,29.84,10.0,South,4.6,-,N/A,,Clear,180,2013-10-20 11:53:00
7:53 AM,42.1,37.0,82,29.84,10.0,Calm,Calm,-,N/A,,Clear,0,2013-10-20 12:53:00
8:53 AM,48.9,39.0,69,29.86,10.0,SW,6.9,-,N/A,,Clear,220,2013-10-20 13:53:00
9:53 AM,54.0,37.9,55,29.86,10.0,SW,8.1,-,N/A,,Clear,220,2013-10-20 14:53:00
10:53 AM,59.0,39.0,48,29.84,10.0,SW,10.4,-,N/A,,Clear,220,2013-10-20 15:53:00
11:53 AM,64.9,37.9,37,29.83,10.0,WSW,9.2,-,N/A,,Clear,240,2013-10-20 16:53:00
12:53 PM,66.9,39.9,37,29.82,10.0,SSW,8.1,-,N/A,,Clear,210,2013-10-20 17:53:00
1:53 PM,69.1,39.9,35,29.80,10.0,Calm,Calm,-,N/A,,Clear,0,2013-10-20 18:53:00
2:53 PM,71.1,41.0,34,29.78,10.0,WSW,4.6,-,N/A,,Clear,250,2013-10-20 19:53:00
3:53 PM,72.0,39.9,31,29.78,10.0,NNW,5.8,-,N/A,,Clear,330,2013-10-20 20:53:00
4:53 PM,69.1,41.0,36,29.80,10.0,NNW,11.5,-,N/A,,Clear,330,2013-10-20 21:53:00
5:53 PM,64.9,42.1,43,29.83,10.0,NNW,4.6,-,N/A,,Clear,330,2013-10-20 22:53:00
6:53 PM,60.1,44.1,55,29.86,10.0,NW,4.6,-,N/A,,Clear,320,2013-10-20 23:53:00
7:53 PM,57.9,43.0,58,29.88,10.0,Calm,Calm,-,N/A,,Clear,0,2013-10-21 00:53:00
8:53 PM,52.0,44.1,74,29.90,10.0,Calm,Calm,-,N/A,,Partly Cloudy,0,2013-10-21 01:53:00
9:53 PM,52.0,46.0,80,29.92,9.0,Calm,Calm,-,N/A,,Overcast,0,2013-10-21 02:53:00
10:53 PM,55.0,45.0,69,29.94,10.0,NW,8.1,-,N/A,,Overcast,320,2013-10-21 03:53:00
11:53 PM,57.0,39.0,51,29.95,10.0,North,10.4,-,0.00,,Mostly Cloudy,360,2013-10-21 04:53:00